2023/09/10 00:00:00,27.3,19.4
2023/09/10 00:10:00,27.3,19.3
2023/09/10 00:20:00,27.3,19.2
2023/09/10 00:30:00,27.3,19.4
2023/09/10 00:40:00,27.3,19.3
2023/09/10 00:50:00,27.3,19.5
2023/09/10 01:00:00,27.4,19.5
2023/09/10 01:10:00,27.4,19.4
2023/09/10 01:20:00,27.3,19.3
2023/09/10 01:30:00,27.3,19.5
2023/09/10 01:40:00,27.3,19.4
2023/09/10 01:50:00,27.3,19.5
2023/09/10 02:00:00,27.4,19.1
2023/09/10 02:10:00,27.3,19.3
2023/09/10 02:20:00,27.2,19.5
2023/09/10 02:30:00,27.4,19.3
2023/09/10 02:40:00,27.4,19.5
2023/09/10 02:50:00,27.4,19.1
2023/09/10 03:00:00,27.5,19.6
2023/09/10 03:10:00,27.5,19.3
2023/09/10 03:20:00,27.5,19.4
2023/09/10 03:30:00,27.4,19.0
2023/09/10 03:40:00,27.4,19.0
2023/09/10 03:50:00,27.4,18.9
2023/09/10 04:00:00,27.4,18.9
2023/09/10 04:10:00,27.4,18.9
2023/09/10 04:20:00,27.5,18.8
2023/09/10 04:30:00,27.4,19.1
2023/09/10 04:40:00,27.4,19.0
2023/09/10 04:50:00,27.5,19.0
2023/09/10 05:00:00,27.3,19.1
2023/09/10 05:10:00,27.4,19.0
2023/09/10 05:20:00,27.4,19.1
2023/09/10 05:30:00,27.4,18.7
2023/09/10 05:40:00,27.5,18.9
2023/09/10 05:50:00,27.4,18.9
2023/09/10 06:00:00,27.5,19.3
2023/09/10 06:10:00,27.4,19.1
2023/09/10 06:20:00,27.5,19.4
2023/09/10 06:30:00,27.4,19.7
2023/09/10 06:40:00,27.4,20.0
2023/09/10 06:50:00,27.5,20.1
2023/09/10 07:00:00,27.4,20.3
2023/09/10 07:10:00,27.6,20.4
2023/09/10 07:20:00,27.4,20.5
2023/09/10 07:30:00,27.5,20.6
2023/09/10 07:40:00,27.5,20.7
2023/09/10 07:50:00,27.6,21.1
2023/09/10 08:00:00,27.5,21.1
2023/09/10 08:10:00,27.5,21.6
2023/09/10 08:20:00,27.6,22.0
2023/09/10 08:30:00,27.5,22.8
2023/09/10 08:40:00,27.4,23.0
2023/09/10 08:50:00,27.5,22.6
2023/09/10 09:00:00,27.6,22.4
2023/09/10 09:10:00,27.5,23.5
2023/09/10 09:20:00,27.6,23.9
2023/09/10 09:30:00,27.6,24.3
2023/09/10 09:40:00,27.7,24.2
2023/09/10 09:50:00,27.6,23.4
2023/09/10 10:00:00,27.6,23.0
2023/09/10 10:10:00,27.6,23.2
2023/09/10 10:20:00,27.6,23.9
2023/09/10 10:30:00,27.7,24.6
2023/09/10 10:40:00,36.5,25.7
2023/09/10 10:50:00,61.9,25.4
2023/09/10 11:00:00,62.0,25.8
2023/09/10 11:10:00,61.8,26.3
2023/09/10 11:20:00,61.4,26.0
2023/09/10 11:30:00,62.3,26.3
2023/09/10 11:40:00,63.1,26.9
2023/09/10 11:50:00,---,26.1
2023/09/10 12:00:00,62.0,25.6
2023/09/10 12:10:00,63.4,25.7
2023/09/10 12:20:00,62.8,25.8
2023/09/10 12:30:00,61.7,27.0
2023/09/10 12:40:00,58.8,25.7
2023/09/10 12:50:00,60.0,25.2
2023/09/10 13:00:00,61.4,25.4
2023/09/10 13:10:00,62.1,25.0
2023/09/10 13:20:00,63.4,25.0
2023/09/10 13:30:00,64.2,25.1
2023/09/10 13:40:00,64.4,25.2
2023/09/10 13:50:00,---,25.5
2023/09/10 14:00:00,63.0,25.2
2023/09/10 14:10:00,62.9,25.5
2023/09/10 14:20:00,63.0,25.9
2023/09/10 14:30:00,64.2,25.4
2023/09/10 14:40:00,---,25.3
2023/09/10 14:50:00,64.9,25.4
2023/09/10 15:00:00,63.3,25.1
2023/09/10 15:10:00,51.0,24.9
2023/09/10 15:20:00,36.8,24.6
2023/09/10 15:30:00,---,24.3
2023/09/10 15:40:00,64.2,24.7
2023/09/10 15:50:00,---,24.0
2023/09/10 16:00:00,---,23.5
2023/09/10 16:10:00,45.2,23.1
2023/09/10 16:20:00,---,22.0
2023/09/10 16:30:00,63.8,21.5
2023/09/10 16:40:00,64.1,21.4
2023/09/10 16:50:00,---,21.3
2023/09/10 17:00:00,26.0,21.3
2023/09/10 17:10:00,44.3,21.1
2023/09/10 17:20:00,---,21.2
2023/09/10 17:30:00,---,20.9
2023/09/10 17:40:00,---,20.9
2023/09/10 17:50:00, 3.4,21.1
2023/09/10 18:00:00,26.2,20.7
2023/09/10 18:10:00,26.1,21.8
2023/09/10 18:20:00,26.1,20.4
2023/09/10 18:30:00,26.4,20.6
2023/09/10 18:40:00,26.4,20.5
2023/09/10 18:50:00,26.3,20.4
2023/09/10 19:00:00,26.6,20.4
2023/09/10 19:10:00,26.7,20.4
2023/09/10 19:20:00,26.6,20.4
2023/09/10 19:30:00,26.6,20.8
2023/09/10 19:40:00,26.7,20.6
2023/09/10 19:50:00,26.7,20.4
2023/09/10 20:00:00,26.6,20.4
2023/09/10 20:10:00, 0.0,20.4
2023/09/10 20:20:00,---,20.4
2023/09/10 20:30:00,91.1,20.3
2023/09/10 20:40:00,84.3,20.1
2023/09/10 20:50:00,84.3,20.3
2023/09/10 21:00:00,52.6,20.2
2023/09/10 21:10:00,50.4,20.3
2023/09/10 21:20:00, 0.0,20.2
2023/09/10 21:30:00, 0.0,20.2
2023/09/10 21:40:00,26.1,19.7
2023/09/10 21:50:00,25.9,20.0
2023/09/10 22:00:00,25.9,19.9
2023/09/10 22:10:00,26.0,20.0
2023/09/10 22:20:00,26.3,19.9
2023/09/10 22:30:00,26.0,20.0
2023/09/10 22:40:00,26.2,19.9
2023/09/10 22:50:00,26.6,19.9
2023/09/10 23:00:00,26.6,20.0
2023/09/10 23:10:00,26.6,19.8
2023/09/10 23:20:00,26.6,20.1
2023/09/10 23:30:00,26.6,19.8
2023/09/10 23:40:00,26.7,19.8
2023/09/10 23:50:00,26.6,20.0
